Waarnemingen

Advertentie
Mijn weer
Angelholm, Zweden (2607): temperatuur & dauwpunt: 14.10.2017 10:00:00 - 20.10.2017 10:00:00 (CEST)Angelholm, Zweden (2607): windsnelheid: 14.10.2017 10:00:00 - 20.10.2017 10:00:00 (CEST)Angelholm, Zweden (2607): windrichting: 14.10.2017 10:00:00 - 20.10.2017 10:00:00 (CEST)Angelholm, Zweden (2607): luchtdruk: 14.10.2017 10:00:00 - 20.10.2017 10:00:00 (CEST)Angelholm, Zweden (2607): zicht: 14.10.2017 10:00:00 - 20.10.2017 10:00:00 (CEST)
Datum & Tijd tt [°C] td [°C] ff [km/u] ff [kn] dd ppp [hPa] vv [km]
20.10.2017 10:00:00 12,3 9,5 28 15 O 1014,0 10
20.10.2017 09:00:00 11,9 9,5 26 14 OZO 1013,9 10
20.10.2017 08:00:00 11,6 9,5 22 12 OZO 1014,2 10
20.10.2017 07:00:00 11,4 9,3 26 14 OZO 1014,1 10
20.10.2017 06:00:00 11,3 9,0 22 12 OZO 1014,3 10
20.10.2017 05:00:00 11,0 8,9 26 14 OZO 1014,7 10
20.10.2017 04:00:00 10,8 8,7 24 13 OZO 1015,1 10
20.10.2017 03:00:00 10,8 8,7 26 14 OZO 1015,9 10
20.10.2017 02:00:00 10,7 8,6 29 16 OZO 1016,1 10
20.10.2017 01:00:00 10,6 8,5 24 13 OZO 1016,4 10
20.10.2017 00:00:00 10,4 8,2 26 14 OZO 1017,0 10
19.10.2017 23:00:00 10,3 7,7 28 15 OZO 1017,2 10
19.10.2017 22:00:00 10,3 8,1 29 16 OZO 1017,0 10
19.10.2017 21:00:00 10,4 8,2 28 15 O 1017,1 10
19.10.2017 20:00:00 10,6 8,9 26 14 OZO 1017,1 10
19.10.2017 19:00:00 10,5 8,9 21 11 O 1017,4 10
19.10.2017 18:00:00 10,6 9,0 18 10 O 1017,4 10
19.10.2017 17:00:00 10,9 8,8 22 12 OZO 1017,6 10
19.10.2017 16:00:00 11,1 9,0 21 11 O 1017,7 10
19.10.2017 15:00:00 11,3 9,2 22 12 OZO 1017,7 10
19.10.2017 14:00:00 11,5 9,4 22 12 O 1017,9 10
19.10.2017 13:00:00 11,2 8,9 24 13 O 1017,8 10
19.10.2017 12:00:00 11,1 9,0 21 11 O 1018,3 10
19.10.2017 11:00:00 10,1 8,5 22 12 O 1018,3 10
19.10.2017 10:00:00 9,5 7,9 18 10 O 1018,2 10
19.10.2017 09:00:00 9,2 7,6 16 9 O 1018,0 10
19.10.2017 08:00:00 9,6 8,0 18 10 O 1017,4 10
19.10.2017 07:00:00 10,1 8,9 15 8 OZO 1017,1 10
19.10.2017 06:00:00 10,6 9,4 15 8 OZO 1017,1 10
19.10.2017 05:00:00 10,7 9,6 13 7 O 1017,0 10
19.10.2017 04:00:00 10,9 9,8 18 10 OZO 1017,0 10
19.10.2017 03:00:00 11,4 10,6 9 5 OZO 1016,7 10
19.10.2017 02:00:00 11,4 10,6 8 4 O 1016,7 10
19.10.2017 01:00:00 10,9 10,1 5 3 O 1016,7 10
19.10.2017 00:00:00 10,8 10,0 5 3 O 1016,5 10
18.10.2017 23:00:00 10,7 9,9 5 3 ZO 1016,7 10
18.10.2017 22:00:00 10,7 9,9 0 0 N 1016,5 10
18.10.2017 21:00:00 10,4 9,6 0 0 N 1016,1 7
18.10.2017 20:00:00 10,7 9,9 8 4 NNO 1015,7 7
18.10.2017 19:00:00 11,5 10,7 4 2 N 1015,4 10
18.10.2017 18:00:00 11,6 10,5 5 3 W 1015,1 4,2
18.10.2017 17:00:00 12,1 10,3 5 3 - 1014,9 10
18.10.2017 16:00:00 12,2 10,9 9 5 W 1014,7 10
18.10.2017 15:00:00 13,1 10,5 11 6 W 1014,5 10
18.10.2017 14:00:00 13,2 11,3 13 7 W 1014,4 10
18.10.2017 13:00:00 12,7 10,8 11 6 W 1014,2 10
18.10.2017 12:00:00 12,6 11,3 15 8 W 1014,0 10
18.10.2017 11:00:00 12,4 11,3 22 12 W 1013,6 2,2
18.10.2017 10:00:00 12,1 11,0 21 11 W 1013,2 2,4
18.10.2017 09:00:00 11,7 10,8 18 10 W 1012,6 4,5
18.10.2017 08:00:00 12,6 10,3 22 12 W 1011,8 7
18.10.2017 07:00:00 12,9 10,3 28 15 WZW 1011,4 10
18.10.2017 06:00:00 12,8 9,8 28 15 WZW 1011,2 10
18.10.2017 05:00:00 12,8 9,4 28 15 WZW 1011,1 10
18.10.2017 04:00:00 12,6 9,4 29 16 WZW 1011,2 10
18.10.2017 03:00:00 12,5 9,5 28 15 ZW 1011,3 10
18.10.2017 02:00:00 12,3 9,3 22 12 ZW 1011,6 10
18.10.2017 01:00:00 12,5 9,3 18 10 ZW 1012,1 10
18.10.2017 00:00:00 12,6 9,1 22 12 ZW 1012,3 10
17.10.2017 23:00:00 12,6 8,9 24 13 ZZW 1012,1 10
17.10.2017 22:00:00 13,2 8,9 24 13 ZZW 1012,3 10
17.10.2017 21:00:00 13,3 8,6 28 15 ZW 1012,6 10
17.10.2017 20:00:00 13,7 8,9 29 16 ZW 1012,9 10
17.10.2017 19:00:00 13,9 9,1 28 15 ZW 1012,8 10
17.10.2017 18:00:00 14,0 9,6 24 13 WZW 1013,2 10
17.10.2017 17:00:00 14,2 9,6 34 18 WZW 1013,2 10
17.10.2017 16:00:00 14,6 9,2 31 17 WZW 1013,6 10
17.10.2017 15:00:00 14,7 8,6 37 20 WZW 1013,9 10
17.10.2017 14:00:00 14,5 9,5 35 19 ZW 1014,2 10
17.10.2017 13:00:00 14,4 9,8 31 17 WZW 1014,8 10
17.10.2017 12:00:00 14,5 11,6 22 12 ZW 1015,0 10
17.10.2017 11:00:00 14,6 11,6 18 10 ZW 1015,0 10
17.10.2017 10:00:00 14,7 11,7 18 10 ZZW 1015,0 9
17.10.2017 09:00:00 12,8 11,9 11 6 ZZO 1014,8 3,1
17.10.2017 08:00:00 12,7 11,9 11 6 ZZO 1014,7 2,0
17.10.2017 07:00:00 13,2 12,3 16 9 ZZO 1014,9 2,5
17.10.2017 06:00:00 13,1 12,2 16 9 ZZO 1015,0 2,2
17.10.2017 05:00:00 13,4 12,1 16 9 ZZO 1015,8 2,8
17.10.2017 04:00:00 13,4 12,1 16 9 ZZO 1016,3 3,6
17.10.2017 03:00:00 12,5 11,7 15 8 ZO 1017,1 2,5
17.10.2017 02:00:00 12,8 12,2 13 7 ZZO 1018,0 2,2
17.10.2017 01:00:00 11,8 11,0 11 6 ZO 1018,3 1,5
17.10.2017 00:00:00 11,4 10,6 5 3 OZO 1018,9 2,7
16.10.2017 23:00:00 10,7 9,9 8 4 ZO 1019,2 1,1
16.10.2017 22:00:00 10,7 9,9 5 3 OZO 1019,4 2,2
16.10.2017 21:00:00 11,7 10,9 0 0 N 1019,8 2,3
16.10.2017 20:00:00 12,5 11,2 5 3 NO 1019,3 7
16.10.2017 19:00:00 14,4 11,9 8 4 WZW 1019,2 10
16.10.2017 18:00:00 14,5 12,0 11 6 W 1019,1 10
16.10.2017 17:00:00 14,8 11,9 18 10 WZW 1018,5 10
16.10.2017 16:00:00 14,7 12,2 15 8 W 1018,4 10
16.10.2017 15:00:00 14,8 12,5 18 10 ZW 1018,0 10
16.10.2017 14:00:00 14,5 12,4 16 9 ZW 1018,2 10
16.10.2017 13:00:00 14,2 12,2 16 9 W 1018,5 10
16.10.2017 12:00:00 14,2 12,2 16 9 W 1018,2 10
16.10.2017 11:00:00 14,4 11,9 15 8 W 1018,0 10
16.10.2017 10:00:00 14,2 12,1 13 7 W 1017,5 10
16.10.2017 09:00:00 14,2 12,4 15 8 WZW 1017,0 8
16.10.2017 08:00:00 14,6 12,3 16 9 WZW 1016,5 6
16.10.2017 07:00:00 14,7 12,7 18 10 WZW 1016,0 6
16.10.2017 06:00:00 14,6 12,8 11 6 ZZW 1016,3 6
16.10.2017 05:00:00 14,8 12,8 9 5 WZW 1016,4 7
16.10.2017 04:00:00 14,3 13,7 9 5 ZW 1016,7 5
16.10.2017 03:00:00 12,2 11,4 9 5 O 1016,9 0,2
16.10.2017 02:00:00 12,6 11,8 11 6 OZO 1017,2 0,5
16.10.2017 01:00:00 13,5 12,9 9 5 ZO 1017,6 2,0
16.10.2017 00:00:00 14,2 13,6 11 6 ZZO 1018,0 3,0
15.10.2017 23:00:00 13,7 13,1 11 6 ZO 1018,6 0,3
15.10.2017 22:00:00 13,4 12,6 15 8 ZZO 1019,2 2,9
15.10.2017 21:00:00 13,4 12,1 18 10 ZZO 1019,8 6
15.10.2017 20:00:00 13,6 12,7 16 9 ZZO 1020,1 5
15.10.2017 19:00:00 14,2 12,8 16 9 Z 1020,3 10
15.10.2017 18:00:00 15,3 13,5 13 7 Z 1020,4 10
15.10.2017 17:00:00 15,8 13,8 11 6 Z 1020,5 10
15.10.2017 16:00:00 15,5 13,8 11 6 ZZO 1021,0 10
15.10.2017 15:00:00 15,4 13,8 11 6 Z 1021,4 10
15.10.2017 14:00:00 15,4 13,1 9 5 ZZW 1022,0 10
15.10.2017 13:00:00 15,2 12,9 9 5 ZW 1022,4 10
15.10.2017 12:00:00 14,7 12,2 11 6 ZW 1022,8 10
15.10.2017 11:00:00 13,7 12,4 9 5 ZW 1022,9 10
15.10.2017 10:00:00 12,8 11,5 8 4 ZZW 1022,9 10
15.10.2017 09:00:00 12,5 11,1 11 6 WZW 1022,6 10
15.10.2017 08:00:00 11,5 10,4 9 5 WZW 1022,3 10
15.10.2017 07:00:00 11,7 10,4 11 6 W 1022,2 10
15.10.2017 06:00:00 11,6 10,0 9 5 WZW 1021,4 10
15.10.2017 05:00:00 11,4 10,1 11 6 WNW 1020,9 10
15.10.2017 04:00:00 12,7 11,1 16 9 W 1020,4 10
15.10.2017 03:00:00 12,8 12,0 13 7 W 1019,8 10
15.10.2017 02:00:00 12,7 11,9 18 10 W 1019,5 4,5
15.10.2017 01:00:00 12,8 12,0 21 11 WNW 1019,2 10
15.10.2017 00:00:00 13,9 13,3 26 14 W 1019,2 1,7
14.10.2017 23:00:00 14,1 13,3 28 15 WZW 1018,5 2,9
14.10.2017 22:00:00 14,3 13,5 26 14 WZW 1018,6 3,2
14.10.2017 21:00:00 14,4 13,6 22 12 WZW 1018,8 7
14.10.2017 20:00:00 14,4 13,6 21 11 WZW 1018,8 10
14.10.2017 19:00:00 14,4 13,6 18 10 W 1018,3 8
14.10.2017 18:00:00 14,6 13,6 22 12 W 1018,2 10
14.10.2017 17:00:00 14,5 13,7 22 12 W 1017,9 10
14.10.2017 16:00:00 14,5 13,7 22 12 W 1017,7 8
14.10.2017 15:00:00 14,7 13,7 26 14 WZW 1017,5 4,5
14.10.2017 14:00:00 14,8 13,8 28 15 WZW 1017,2 6
14.10.2017 13:00:00 15,1 13,8 29 16 WZW 1016,9 9
14.10.2017 12:00:00 15,7 14,2 28 15 WZW 1016,8 9
14.10.2017 11:00:00 15,2 14,1 34 18 WZW 1016,2 6
14.10.2017 10:00:00 15,3 14,2 34 18 WZW 1015,9 7

tt = temperatuur
td = dauwpunt
ff = windsnelheid
dd = windrichting
ppp = luchtdruk
vv = zicht

Weerstations in de omgeving